TimeCST,TemperatureF,Dew PointF,Humidity,Sea Level PressureIn,VisibilityMPH,Wind Direction,Wind SpeedMPH,Gust SpeedMPH,PrecipitationIn,Events,Conditions,WindDirDegrees,DateUTC
12:15 AM,32.0,23.0,69,30.21,10.0,Calm,Calm,-,N/A,,Clear,0,2012-11-28 06:15:00
12:35 AM,32.0,23.0,69,30.22,10.0,Calm,Calm,-,N/A,,Clear,0,2012-11-28 06:35:00
12:55 AM,30.2,21.2,69,30.21,10.0,Calm,Calm,-,N/A,,Clear,0,2012-11-28 06:55:00
1:15 AM,32.0,23.0,69,30.21,10.0,SSE,5.8,-,N/A,,Clear,160,2012-11-28 07:15:00
1:35 AM,30.2,21.2,69,30.22,10.0,Calm,Calm,-,N/A,,Clear,0,2012-11-28 07:35:00
1:55 AM,30.2,21.2,69,30.22,10.0,Calm,Calm,-,N/A,,Clear,0,2012-11-28 07:55:00
2:15 AM,30.2,21.2,69,30.22,10.0,South,4.6,-,N/A,,Clear,190,2012-11-28 08:15:00
2:35 AM,28.4,21.2,74,30.22,10.0,SSE,4.6,-,N/A,,Clear,160,2012-11-28 08:35:00
2:55 AM,26.6,21.2,80,30.23,10.0,Calm,Calm,-,N/A,,Clear,0,2012-11-28 08:55:00
3:15 AM,28.4,21.2,74,30.24,10.0,Calm,Calm,-,N/A,,Clear,0,2012-11-28 09:15:00
3:35 AM,26.6,21.2,80,30.24,10.0,Calm,Calm,-,N/A,,Clear,0,2012-11-28 09:35:00
3:55 AM,26.6,21.2,80,30.24,10.0,Calm,Calm,-,N/A,,Clear,0,2012-11-28 09:55:00
4:15 AM,26.6,21.2,80,30.23,10.0,Calm,Calm,-,N/A,,Clear,0,2012-11-28 10:15:00
4:35 AM,23.0,19.4,86,30.24,10.0,Calm,Calm,-,N/A,,Clear,0,2012-11-28 10:35:00
4:55 AM,24.8,19.4,80,30.23,10.0,Calm,Calm,-,N/A,,Clear,0,2012-11-28 10:55:00
5:15 AM,23.0,19.4,86,30.23,10.0,SW,3.5,-,N/A,,Clear,220,2012-11-28 11:15:00
5:35 AM,26.6,21.2,80,30.24,10.0,Calm,Calm,-,N/A,,Clear,0,2012-11-28 11:35:00
5:55 AM,21.2,17.6,86,30.24,10.0,Calm,Calm,-,N/A,,Clear,0,2012-11-28 11:55:00
6:15 AM,21.2,17.6,86,30.24,10.0,Calm,Calm,-,N/A,,Clear,0,2012-11-28 12:15:00
6:35 AM,23.0,19.4,86,30.24,10.0,Calm,Calm,-,N/A,,Clear,0,2012-11-28 12:35:00
6:55 AM,24.8,21.2,86,30.24,10.0,SSW,4.6,-,N/A,,Clear,210,2012-11-28 12:55:00
7:15 AM,24.8,21.2,86,30.25,10.0,Calm,Calm,-,N/A,,Clear,0,2012-11-28 13:15:00
7:35 AM,21.2,17.6,86,30.25,10.0,SW,3.5,-,N/A,,Clear,220,2012-11-28 13:35:00
7:55 AM,21.2,17.6,86,30.25,10.0,Calm,Calm,-,N/A,,Clear,0,2012-11-28 13:55:00
8:15 AM,23.0,19.4,86,30.25,10.0,Calm,Calm,-,N/A,,Clear,0,2012-11-28 14:15:00
8:35 AM,26.6,21.2,80,30.25,10.0,Calm,Calm,-,N/A,,Clear,0,2012-11-28 14:35:00
8:55 AM,30.2,23.0,75,30.26,10.0,Calm,Calm,-,N/A,,Clear,0,2012-11-28 14:55:00
9:15 AM,30.2,23.0,75,30.26,10.0,Calm,Calm,-,N/A,,Clear,0,2012-11-28 15:15:00
9:35 AM,32.0,23.0,69,30.27,10.0,Calm,Calm,-,N/A,,Clear,0,2012-11-28 15:35:00
9:55 AM,33.8,24.8,70,30.27,10.0,Calm,Calm,-,N/A,,Clear,0,2012-11-28 15:55:00
10:15 AM,37.4,24.8,60,30.27,10.0,Calm,Calm,-,N/A,,Clear,0,2012-11-28 16:15:00
10:35 AM,41.0,26.6,57,30.26,10.0,NW,3.5,-,N/A,,Clear,310,2012-11-28 16:35:00
10:55 AM,42.8,26.6,53,30.26,10.0,NW,4.6,-,N/A,,Clear,320,2012-11-28 16:55:00
11:15 AM,44.6,26.6,49,30.26,10.0,North,3.5,-,N/A,,Clear,360,2012-11-28 17:15:00
11:35 AM,46.4,26.6,46,30.24,10.0,Calm,Calm,-,N/A,,Clear,0,2012-11-28 17:35:00
11:55 AM,48.2,26.6,43,30.22,10.0,NE,3.5,-,N/A,,Clear,40,2012-11-28 17:55:00
12:35 PM,50.0,26.6,40,30.20,10.0,North,3.5,-,N/A,,Clear,10,2012-11-28 18:35:00
12:55 PM,51.8,26.6,38,30.19,10.0,NE,3.5,-,N/A,,Clear,40,2012-11-28 18:55:00
1:15 PM,53.6,26.6,35,30.18,10.0,NNE,3.5,-,N/A,,Clear,30,2012-11-28 19:15:00
1:35 PM,55.4,26.6,33,30.17,10.0,NNW,4.6,-,N/A,,Clear,340,2012-11-28 19:35:00
1:55 PM,59.0,26.6,29,30.16,10.0,SSW,10.4,-,N/A,,Clear,200,2012-11-28 19:55:00
2:15 PM,62.6,26.6,26,30.15,10.0,SSW,10.4,16.1,N/A,,Clear,200,2012-11-28 20:15:00
2:35 PM,62.6,26.6,26,30.14,10.0,South,11.5,-,N/A,,Clear,180,2012-11-28 20:35:00
2:55 PM,62.6,28.4,27,30.13,10.0,South,12.7,-,N/A,,Clear,170,2012-11-28 20:55:00
3:15 PM,62.6,26.6,26,30.12,10.0,SSE,11.5,-,N/A,,Clear,160,2012-11-28 21:15:00
3:35 PM,62.6,26.6,26,30.12,10.0,SSE,12.7,-,N/A,,Clear,160,2012-11-28 21:35:00
3:55 PM,62.6,26.6,26,30.11,10.0,South,13.8,18.4,N/A,,Clear,170,2012-11-28 21:55:00
4:15 PM,62.6,26.6,26,30.11,10.0,SSE,13.8,17.3,N/A,,Clear,160,2012-11-28 22:15:00
4:35 PM,60.8,26.6,27,30.11,10.0,South,11.5,-,N/A,,Clear,170,2012-11-28 22:35:00
4:55 PM,60.8,26.6,27,30.12,10.0,South,6.9,-,N/A,,Clear,170,2012-11-28 22:55:00
5:15 PM,59.0,26.6,29,30.12,10.0,South,3.5,-,N/A,,Clear,170,2012-11-28 23:15:00
5:35 PM,55.4,26.6,33,30.12,10.0,SSE,4.6,-,N/A,,Clear,150,2012-11-28 23:35:00
5:55 PM,55.4,26.6,33,30.12,10.0,Calm,Calm,-,N/A,,Clear,0,2012-11-28 23:55:00
6:15 PM,53.6,26.6,35,30.12,10.0,Calm,Calm,-,N/A,,Clear,0,2012-11-29 00:15:00
6:35 PM,51.8,26.6,38,30.12,10.0,SSE,3.5,-,N/A,,Clear,150,2012-11-29 00:35:00
6:55 PM,50.0,26.6,40,30.11,10.0,ESE,4.6,-,N/A,,Clear,120,2012-11-29 00:55:00
7:15 PM,50.0,26.6,40,30.11,10.0,ESE,4.6,-,N/A,,Clear,120,2012-11-29 01:15:00
7:35 PM,46.4,26.6,46,30.10,10.0,Calm,Calm,-,N/A,,Clear,0,2012-11-29 01:35:00
7:55 PM,44.6,26.6,49,30.10,10.0,Calm,Calm,-,N/A,,Clear,0,2012-11-29 01:55:00
8:15 PM,44.6,26.6,49,30.10,10.0,Calm,Calm,-,N/A,,Clear,0,2012-11-29 02:15:00
8:35 PM,50.0,32.0,50,30.09,10.0,SSW,10.4,-,N/A,,Clear,200,2012-11-29 02:35:00
8:55 PM,53.6,33.8,47,30.08,10.0,South,16.1,-,N/A,,Clear,190,2012-11-29 02:55:00
9:15 PM,53.6,33.8,47,30.08,10.0,South,19.6,26.5,N/A,,Clear,190,2012-11-29 03:15:00
9:35 PM,53.6,35.6,51,30.07,10.0,South,19.6,28.8,N/A,,Clear,180,2012-11-29 03:35:00
9:55 PM,53.6,35.6,51,30.06,10.0,South,23.0,29.9,N/A,,Clear,180,2012-11-29 03:55:00
10:15 PM,53.6,37.4,54,30.05,10.0,South,24.2,28.8,N/A,,Clear,190,2012-11-29 04:15:00
10:35 PM,53.6,37.4,54,30.05,10.0,South,20.7,29.9,N/A,,Clear,190,2012-11-29 04:35:00
10:55 PM,53.6,37.4,54,30.05,10.0,South,20.7,27.6,N/A,,Clear,180,2012-11-29 04:55:00
11:15 PM,51.8,37.4,58,30.06,10.0,SW,10.4,-,N/A,,Clear,220,2012-11-29 05:15:00
11:35 PM,50.0,35.6,58,30.06,10.0,SW,9.2,-,N/A,,Clear,230,2012-11-29 05:35:00
11:55 PM,50.0,35.6,58,30.06,10.0,SW,9.2,-,N/A,,Clear,230,2012-11-29 05:55:00